User: anonymous   Login
Location: Marse
(42.1502°N, 110.9866°W)
Time: 21:23:42
(UTC+00:00)
Language:

NUDT-PHONESAT - Orbit

View from above orbital plane
View from above orbital plane
View from above satellite
View from above satellite

Ground track
Ground track

The orbit data is extracted from the following two-line orbital elements,

1 40900U 15049B   22177.44597815  .00022291  00000-0  62922-3 0  9994
2 40900  97.3998 195.4715 0006622 247.1509 224.0277 15.36371583375995
Epoch (UTC): 26 June 2022 10:42:12
Eccentricity: 0.0006622
inclination: 97.3998°
perigee height: 452 km
apogee height: 461 km
right ascension of ascending node: 195.4715°
argument of perigee: 247.1509°
revolutions per day: 15.36371583
mean anomaly at epoch: 224.0277°
orbit number at epoch: 37599

The dashed part of the orbit path shows where the satellite is in the earth's shadow,  

DLR